AE7MK-13 Weather Reports


Display with metric or nautical units.
time (UTC)temp
F
wind
direction
speed
MPH
gust
MPH
rain 1hr
in
rain 24hr
in
rain mn
in
humidity
%
barometer
mb
20260507215004 66 243 2.0 10.0 0.00 0.00 0.00 37 1016.2
20260507214004 66 205 2.0 8.0 0.00 0.00 0.00 36 1016.3
20260507213003 66 152 4.0 10.0 0.00 0.00 0.00 38 1016.4
20260507212003 66 207 6.0 12.0 0.00 0.00 0.00 36 1016.5
20260507211003 66 165 4.0 30.0 0.00 0.00 0.00 36 1016.5
20260507210004 66 204 4.0 12.0 0.00 0.00 0.00 35 1016.5
20260507205003 66 135 1.0 4.0 0.00 0.00 0.00 35 1016.6
20260507204003 65 193 4.0 10.0 0.00 0.00 0.00 36 1016.7
20260507203003 65 212 6.0 12.0 0.00 0.00 0.00 36 1016.7
20260507202004 66 167 3.0 15.0 0.00 0.00 0.00 35 1016.7
20260507201003 65 25 0.0 5.0 0.00 0.00 0.00 33 1016.9
20260507200003 65 7 1.0 7.0 0.00 0.00 0.00 33 1016.9
20260507195003 65 40 4.0 10.0 0.00 0.00 0.00 34 1017.0
20260507194003 64 39 2.0 8.0 0.00 0.00 0.00 35 1017.0
20260507193003 64 33 3.0 10.0 0.00 0.00 0.00 35 1017.0
20260507192003 64 43 4.0 10.0 0.00 0.00 0.00 36 1016.9
20260507191003 64 357 1.0 6.0 0.00 0.00 0.00 35 1017.0
20260507190004 63 11 4.0 9.0 0.00 0.00 0.00 35 1017.0
20260507185003 62 11 2.0 7.0 0.00 0.00 0.00 37 1016.9
20260507184003 62 330 1.0 5.0 0.00 0.00 0.00 36 1016.9
20260507183003 62 90 2.0 6.0 0.00 0.00 0.00 37 1016.9
20260507182003 61 66 2.0 6.0 0.00 0.00 0.00 36 1016.9
20260507181212 61 18 2.0 8.0 0.00 0.00 0.00 35 1016.9
20260507180004 61 1 2.0 7.0 0.00 0.00 0.00 35 1016.9
20260507175003 61 2 4.0 9.0 0.00 0.00 0.00 34 1017.0
20260507174003 61 350 4.0 9.0 0.00 0.00 0.00 34 1017.0
20260507173003 61 349 2.0 9.0 0.00 0.00 0.00 34 1016.8
20260507172214 60 318 2.0 9.0 0.00 0.00 0.00 35 1016.8
20260507171003 60 317 3.0 10.0 0.00 0.00 0.00 36 1016.6
20260507170004 60 339 2.0 10.0 0.00 0.00 0.00 36 1016.7
20260507165214 60 341 2.0 10.0 0.00 0.00 0.00 35 1016.7
20260507164003 59 328 2.0 8.0 0.00 0.00 0.00 38 1016.7
20260507163003 59 324 2.0 7.0 0.00 0.00 0.00 38 1016.6
20260507162003 59 318 2.0 8.0 0.00 0.00 0.00 38 1016.5
20260507161003 58 316 2.0 6.0 0.00 0.00 0.00 38 1016.7
20260507160003 58 338 1.0 4.0 0.00 0.00 0.00 39 1016.7
20260507155213 58 355 1.0 6.0 0.00 0.00 0.00 40 1016.7
20260507154004 58 360 1.0 5.0 0.00 0.00 0.00 41 1016.7
20260507153003 57 317 1.0 5.0 0.00 0.00 0.00 43 1016.7
20260507152003 56 304 3.0 6.0 0.00 0.00 0.00 42 1016.8
20260507151003 56 310 2.0 6.0 0.00 0.00 0.00 45 1016.7
20260507150004 55 302 2.0 6.0 0.00 0.00 0.00 46 1016.7
20260507145003 54 311 4.0 8.0 0.00 0.00 0.00 49 1016.7
20260507144003 53 310 5.0 9.0 0.00 0.00 0.00 48 1016.4
20260507143003 53 310 4.0 9.0 0.00 0.00 0.00 49 1016.4
20260507142003 53 310 2.0 8.0 0.00 0.00 0.00 48 1016.1
20260507141003 53 319 1.0 4.0 0.00 0.00 0.00 47 1016.0
20260507140003 53 320 0.0 4.0 0.00 0.00 0.00 48 1015.9
20260507135003 52 343 0.0 1.0 0.00 0.00 0.00 50 1015.7
20260507134212 51 317 0.0 3.0 0.00 0.00 0.00 52 1015.5
20260507133003 50 323 0.0 3.0 0.00 0.00 0.00 54 1015.4
20260507132003 49 316 2.0 5.0 0.00 0.00 0.00 54 1015.3
20260507131003 49 317 2.0 9.0 0.00 0.00 0.00 55 1015.4
20260507130004 48 315 2.0 9.0 0.00 0.00 0.00 55 1015.2
20260507125003 48 313 3.0 10.0 0.00 0.00 0.00 55 1015.1
20260507124003 47 318 1.0 7.0 0.00 0.00 0.00 56 1015.2
20260507123003 47 316 2.0 8.0 0.00 0.00 0.00 55 1015.1
20260507122214 48 316 3.0 9.0 0.00 0.00 0.00 55 1015.2
20260507121214 48 315 5.0 12.0 0.00 0.00 0.00 53 1015.1
20260507120003 48 314 6.0 13.0 0.00 0.00 0.00 52 1015.2
20260507115003 49 314 4.0 11.0 0.00 0.00 0.00 51 1015.1
20260507114003 49 312 6.0 13.0 0.00 0.00 0.00 50 1014.9
20260507113003 49 310 4.0 12.0 0.00 0.00 0.00 51 1015.0
20260507112214 48 314 2.0 9.0 0.00 0.00 0.00 52 1014.9
20260507111004 47 314 1.0 6.0 0.00 0.00 0.00 55 1014.9
20260507110213 46 305 2.0 5.0 0.00 0.00 0.00 55 1014.9
20260507105003 47 0 0.0 0.0 0.00 0.00 0.00 54 1014.9
20260507104213 47 0 0.0 0.0 0.00 0.00 0.00 54 1015.1
20260507103003 48 306 3.0 9.0 0.00 0.00 0.00 54 1014.9
20260507102213 48 308 6.0 10.0 0.00 0.00 0.00 53 1014.7
20260507101003 48 310 7.0 16.0 0.00 0.00 0.00 53 1014.6
20260507100003 48 311 11.0 16.0 0.00 0.00 0.00 52 1014.5
20260507095003 49 311 12.0 17.0 0.00 0.00 0.00 51 1014.5
20260507094213 49 312 7.0 16.0 0.00 0.00 0.00 50 1014.6
20260507093003 49 310 8.0 14.0 0.00 0.00 0.00 49 1014.6
20260507092003 49 311 3.0 9.0 0.00 0.00 0.00 49 1014.8
20260507091003 50 302 9.0 13.0 0.00 0.00 0.00 46 1014.6
20260507090004 50 299 9.0 13.0 0.00 0.00 0.00 46 1014.6
20260507085213 50 302 11.0 17.0 0.00 0.00 0.00 46 1014.5
20260507084213 50 306 12.0 16.0 0.00 0.00 0.00 48 1014.5
20260507083212 50 306 12.0 23.0 0.00 0.00 0.00 47 1014.7
20260507082213 51 302 14.0 19.0 0.00 0.00 0.00 46 1014.3
20260507081212 51 300 14.0 22.0 0.00 0.00 0.00 47 1014.3
20260507080004 50 297 15.0 20.0 0.00 0.00 0.00 49 1014.4
20260507075004 50 299 15.0 22.0 0.00 0.00 0.00 54 1014.7
20260507074003 50 301 14.0 21.0 0.00 0.00 0.00 55 1014.9
20260507073214 50 302 16.0 25.0 0.00 0.00 0.00 53 1014.6
20260507072003 51 301 18.0 26.0 0.00 0.00 0.00 51 1014.5
20260507071004 51 306 17.0 25.0 0.00 0.00 0.00 49 1014.5
20260507070007 53 303 20.0 29.0 0.00 0.00 0.00 41 1014.1
20260507065003 51 306 20.0 28.0 0.00 0.00 0.00 52 1014.1
20260507064003 51 306 22.0 30.0 0.00 0.00 0.00 52 1014.0
20260507063214 52 303 21.0 31.0 0.00 0.00 0.00 50 1013.9
20260507062004 52 301 23.0 32.0 0.00 0.00 0.00 48 1013.8
20260507061003 52 301 21.0 32.0 0.00 0.00 0.00 49 1013.8
20260507060003 52 299 16.0 23.0 0.00 0.00 0.00 50 1014.4
20260507055003 52 289 13.0 23.0 0.00 0.00 0.00 50 1014.6
20260507054003 53 296 19.0 30.0 0.00 0.00 0.00 49 1014.1
20260507053004 54 303 22.0 30.0 0.00 0.00 0.00 48 1014.0
20260507052003 55 302 25.0 32.0 0.00 0.00 0.00 45 1014.2
20260507051213 55 307 21.0 30.0 0.00 0.00 0.00 45 1014.6
20260507050003 55 301 20.0 34.0 0.00 0.00 0.00 47 1014.8
20260507045003 55 299 18.0 27.0 0.00 0.00 0.00 45 1014.8
20260507044003 55 296 16.0 25.0 0.00 0.00 0.00 48 1015.0
20260507043213 55 299 15.0 19.0 0.00 0.00 0.00 47 1015.1
20260507042003 56 300 14.0 21.0 0.00 0.00 0.00 46 1015.1
20260507041003 56 299 14.0 20.0 0.00 0.00 0.00 44 1015.1
20260507040003 57 299 13.0 20.0 0.00 0.00 0.00 43 1015.2
20260507035003 57 301 14.0 22.0 0.00 0.00 0.00 43 1015.2
20260507034003 56 306 13.0 19.0 0.00 0.00 0.00 44 1015.3
20260507033003 57 308 10.0 17.0 0.00 0.00 0.00 45 1015.2
20260507032003 57 308 8.0 14.0 0.00 0.00 0.00 46 1015.2
20260507031003 58 308 10.0 16.0 0.00 0.00 0.00 44 1015.2
20260507030003 59 305 12.0 18.0 0.00 0.00 0.00 42 1015.1
20260507025213 59 295 13.0 23.0 0.00 0.00 0.00 39 1015.0
20260507024003 60 296 11.0 18.0 0.00 0.00 0.00 37 1015.2
20260507023003 60 300 12.0 19.0 0.00 0.00 0.00 37 1015.2
20260507022003 61 298 13.0 19.0 0.00 0.00 0.00 36 1015.3
20260507021003 60 296 10.0 15.0 0.00 0.00 0.00 36 1015.3
20260507020003 60 297 13.0 22.0 0.00 0.00 0.00 36 1015.3
20260507015003 61 290 16.0 26.0 0.00 0.00 0.00 35 1015.2
20260507014004 61 290 18.0 28.0 0.00 0.00 0.00 32 1015.1
20260507013003 61 290 18.0 30.0 0.00 0.00 0.00 33 1015.1
20260507012003 61 292 17.0 27.0 0.00 0.00 0.00 34 1015.2
20260507011214 61 294 15.0 22.0 0.00 0.00 0.00 36 1015.1
20260507010003 61 298 15.0 22.0 0.00 0.00 0.00 34 1015.2
20260507005004 62 301 12.0 22.0 0.00 0.00 0.00 32 1015.2
20260507004003 62 296 13.0 19.0 0.00 0.00 0.00 31 1015.2
20260507003003 62 289 13.0 21.0 0.00 0.00 0.00 31 1015.3
20260507002213 62 293 15.0 26.0 0.00 0.00 0.00 30 1015.3
20260507001003 62 287 13.0 18.0 0.00 0.00 0.00 31 1015.1
20260507000004 62 288 14.0 20.0 0.00 0.00 0.00 31 1015.2
20260506235003 63 297 15.0 22.0 0.00 0.00 0.00 31 1015.3
20260506234213 63 296 15.0 22.0 0.00 0.00 0.00 30 1015.3
20260506233003 64 296 14.0 22.0 0.00 0.00 0.00 30 1015.2
20260506232003 64 297 14.0 21.0 0.00 0.00 0.00 31 1015.2
20260506231003 64 297 15.0 20.0 0.00 0.00 0.00 31 1015.2
20260506230005 64 292 13.0 21.0 0.00 0.00 0.00 29 1015.2
20260506225003 65 292 14.0 22.0 0.00 0.00 0.00 27 1015.3
20260506224003 65 292 13.0 19.0 0.00 0.00 0.00 27 1015.4
20260506223004 65 290 13.0 21.0 0.00 0.00 0.00 25 1015.5
20260506222003 65 291 14.0 23.0 0.00 0.00 0.00 26 1015.6
20260506221003 66 291 16.0 23.0 0.00 0.00 0.00 25 1015.6
20260506220003 66 292 16.0 24.0 0.00 0.00 0.00 22 1015.7